Location: Elblag
(54.0944°N, 19.4042°E)
Time: 11:50:11
(UTC+01:00)

ISS - Visible Passes

Search period start: 13 December 2018 00:00
Search period end: 23 December 2018 00:00
Orbit: 401 x 408 km, 51.6° (Epoch: 13 December)

Date Brightness Start Highest point End Pass type
(mag) Time Alt. Az. Time Alt. Az. Time Alt. Az.
13 Dec -0.8 16:31:13 10° WSW 16:33:30 18° SSW 16:35:47 10° SSE visible
15 Dec 0.0 16:24:39 10° SW 16:25:14 10° SW 16:25:49 10° SSW visible
22 Dec -0.2 07:07:24 10° SSE 07:08:33 11° SE 07:09:41 10° ESE visible
